| time (UTC) | temp F | wind direction | speed knots | gust knots | rain 1hr in | rain 24hr in | rain mn in | humidity % | barometer mb |
| 20260506062003 | 61 | 308 | 9.6 | 11.3 | 0.00 | 0.00 | 0.00 | 45 | 1014.2 |
| 20260506061003 | 61 | 307 | 8.7 | 10.4 | 0.00 | 0.00 | 0.00 | 45 | 1014.1 |
| 20260506051003 | 62 | 305 | 6.1 | 8.7 | 0.00 | 0.00 | 0.00 | 44 | 1014.3 |
| 20260506045003 | 62 | 307 | 7.0 | 8.7 | 0.00 | 0.00 | 0.00 | 44 | 1014.2 |
| 20260506044003 | 62 | 309 | 6.1 | 7.0 | 0.00 | 0.00 | 0.00 | 44 | 1014.2 |
| 20260506043003 | 60 | 308 | 3.5 | 7.0 | 0.00 | 0.00 | 0.00 | 46 | 1014.2 |
| 20260506042003 | 57 | 325 | 1.7 | 3.5 | 0.00 | 0.00 | 0.00 | 51 | 1014.1 |
| 20260506041003 | 58 | 342 | 2.6 | 4.3 | 0.00 | 0.00 | 0.00 | 50 | 1014.0 |
| 20260506040004 | 61 | 305 | 2.6 | 6.1 | 0.00 | 0.00 | 0.00 | 45 | 1014.0 |
| 20260506035003 | 62 | 280 | 3.5 | 7.0 | 0.00 | 0.00 | 0.00 | 43 | 1014.0 |
| 20260506034003 | 63 | 280 | 1.7 | 4.3 | 0.00 | 0.00 | 0.00 | 43 | 1013.8 |
| 20260506033004 | 63 | 281 | 1.7 | 3.5 | 0.00 | 0.00 | 0.00 | 43 | 1013.8 |
| 20260506032003 | 64 | 263 | 0.9 | 2.6 | 0.00 | 0.00 | 0.00 | 43 | 1013.7 |
| 20260506031003 | 65 | 250 | 3.5 | 5.2 | 0.00 | 0.00 | 0.00 | 41 | 1013.7 |
| 20260506030003 | 66 | 244 | 3.5 | 7.0 | 0.00 | 0.00 | 0.00 | 39 | 1013.7 |
| 20260506025003 | 68 | 204 | 2.6 | 6.1 | 0.00 | 0.00 | 0.00 | 38 | 1013.7 |
| 20260506024003 | 68 | 223 | 4.3 | 7.8 | 0.00 | 0.00 | 0.00 | 37 | 1013.7 |
| 20260506023213 | 69 | 225 | 4.3 | 8.7 | 0.00 | 0.00 | 0.00 | 35 | 1013.6 |
| 20260506022003 | 70 | 219 | 3.5 | 7.0 | 0.00 | 0.00 | 0.00 | 35 | 1013.7 |
| 20260506021003 | 70 | 228 | 4.3 | 12.2 | 0.00 | 0.00 | 0.00 | 33 | 1013.5 |
| 20260506020003 | 70 | 222 | 4.3 | 10.4 | 0.00 | 0.00 | 0.00 | 33 | 1013.6 |
| 20260506015213 | 70 | 189 | 3.5 | 7.8 | 0.00 | 0.00 | 0.00 | 34 | 1013.4 |
| 20260506014003 | 70 | 186 | 6.1 | 10.4 | 0.00 | 0.00 | 0.00 | 36 | 1013.5 |
| 20260506013213 | 70 | 186 | 5.2 | 10.4 | 0.00 | 0.00 | 0.00 | 33 | 1013.5 |
| 20260506012213 | 70 | 210 | 4.3 | 8.7 | 0.00 | 0.00 | 0.00 | 34 | 1013.5 |
| 20260506011003 | 70 | 184 | 5.2 | 10.4 | 0.00 | 0.00 | 0.00 | 35 | 1013.5 |
| 20260506010003 | 70 | 211 | 2.6 | 10.4 | 0.00 | 0.00 | 0.00 | 33 | 1013.6 |
| 20260506005003 | 69 | 148 | 2.6 | 5.2 | 0.00 | 0.00 | 0.00 | 35 | 1013.6 |
| 20260506004003 | 70 | 179 | 6.1 | 9.6 | 0.00 | 0.00 | 0.00 | 34 | 1013.7 |
| 20260506003003 | 70 | 161 | 5.2 | 8.7 | 0.00 | 0.00 | 0.00 | 35 | 1013.6 |
| 20260506002212 | 71 | 173 | 4.3 | 7.8 | 0.00 | 0.00 | 0.00 | 33 | 1013.7 |
| 20260506001003 | 71 | 151 | 4.3 | 12.2 | 0.00 | 0.00 | 0.00 | 34 | 1013.7 |
| 20260506000003 | 72 | 166 | 5.2 | 11.3 | 0.00 | 0.00 | 0.00 | 35 | 1013.8 |
| 20260505235003 | 71 | 181 | 3.5 | 8.7 | 0.00 | 0.00 | 0.00 | 34 | 1014.0 |
| 20260505234004 | 71 | 164 | 6.1 | 11.3 | 0.00 | 0.00 | 0.00 | 34 | 1014.0 |
| 20260505233214 | 71 | 142 | 5.2 | 10.4 | 0.00 | 0.00 | 0.00 | 35 | 1014.0 |
| 20260505232214 | 71 | 149 | 5.2 | 10.4 | 0.00 | 0.00 | 0.00 | 35 | 1014.1 |
| 20260505231003 | 72 | 172 | 5.2 | 11.3 | 0.00 | 0.00 | 0.00 | 33 | 1014.1 |
| 20260505230004 | 72 | 221 | 2.6 | 8.7 | 0.00 | 0.00 | 0.00 | 35 | 1014.3 |
| 20260505225003 | 71 | 248 | 3.5 | 9.6 | 0.00 | 0.00 | 0.00 | 33 | 1014.3 |
| 20260505224003 | 71 | 202 | 6.1 | 10.4 | 0.00 | 0.00 | 0.00 | 32 | 1014.3 |
| 20260505223214 | 72 | 180 | 3.5 | 10.4 | 0.00 | 0.00 | 0.00 | 33 | 1014.4 |
| 20260505222003 | 72 | 138 | 1.7 | 6.1 | 0.00 | 0.00 | 0.00 | 33 | 1014.5 |
| 20260505221003 | 70 | 204 | 2.6 | 9.6 | 0.00 | 0.00 | 0.00 | 34 | 1014.5 |
| 20260505220004 | 71 | 185 | 5.2 | 10.4 | 0.00 | 0.00 | 0.00 | 35 | 1014.6 |
| 20260505215003 | 71 | 123 | 1.7 | 7.0 | 0.00 | 0.00 | 0.00 | 34 | 1014.7 |
| 20260505214003 | 70 | 65 | 1.7 | 7.0 | 0.00 | 0.00 | 0.00 | 36 | 1014.8 |
| 20260505213003 | 70 | 98 | 1.7 | 5.2 | 0.00 | 0.00 | 0.00 | 36 | 1014.9 |
| 20260505212003 | 70 | 127 | 3.5 | 7.8 | 0.00 | 0.00 | 0.00 | 35 | 1014.9 |
| 20260505211213 | 69 | 96 | 4.3 | 9.6 | 0.00 | 0.00 | 0.00 | 37 | 1015.0 |
| 20260505210003 | 70 | 110 | 3.5 | 8.7 | 0.00 | 0.00 | 0.00 | 37 | 1015.1 |
| 20260505205003 | 69 | 117 | 2.6 | 7.8 | 0.00 | 0.00 | 0.00 | 37 | 1015.2 |
| 20260505204003 | 68 | 95 | 1.7 | 6.1 | 0.00 | 0.00 | 0.00 | 38 | 1015.2 |
| 20260505203003 | 68 | 105 | 1.7 | 6.1 | 0.00 | 0.00 | 0.00 | 38 | 1015.3 |
| 20260505202213 | 67 | 58 | 0.0 | 2.6 | 0.00 | 0.00 | 0.00 | 39 | 1015.3 |
| 20260505201003 | 67 | 83 | 1.7 | 4.3 | 0.00 | 0.00 | 0.00 | 38 | 1015.3 |
| 20260505200003 | 68 | 55 | 1.7 | 7.0 | 0.00 | 0.00 | 0.00 | 37 | 1015.4 |
| 20260505195003 | 69 | 93 | 3.5 | 7.8 | 0.00 | 0.00 | 0.00 | 37 | 1015.4 |
| 20260505194003 | 69 | 104 | 2.6 | 8.7 | 0.00 | 0.00 | 0.00 | 37 | 1015.4 |
| 20260505193003 | 68 | 279 | 2.6 | 8.7 | 0.00 | 0.00 | 0.00 | 38 | 1015.3 |
| 20260505192003 | 67 | 234 | 3.5 | 7.8 | 0.00 | 0.00 | 0.00 | 37 | 1015.4 |
| 20260505191003 | 67 | 142 | 3.5 | 8.7 | 0.00 | 0.00 | 0.00 | 38 | 1015.4 |
| 20260505190003 | 67 | 167 | 4.3 | 8.7 | 0.00 | 0.00 | 0.00 | 38 | 1015.4 |
| 20260505185003 | 67 | 136 | 2.6 | 8.7 | 0.00 | 0.00 | 0.00 | 38 | 1015.4 |
| 20260505184003 | 67 | 88 | 1.7 | 7.0 | 0.00 | 0.00 | 0.00 | 37 | 1015.5 |
| 20260505183212 | 68 | 170 | 1.7 | 5.2 | 0.00 | 0.00 | 0.00 | 38 | 1015.5 |
| 20260505182003 | 67 | 162 | 2.6 | 8.7 | 0.00 | 0.00 | 0.00 | 37 | 1015.4 |
| 20260505181214 | 67 | 140 | 1.7 | 7.8 | 0.00 | 0.00 | 0.00 | 37 | 1015.4 |
| 20260505180214 | 67 | 117 | 0.9 | 3.5 | 0.00 | 0.00 | 0.00 | 36 | 1015.4 |
| 20260505175003 | 65 | 114 | 2.6 | 6.1 | 0.00 | 0.00 | 0.00 | 38 | 1015.4 |
| 20260505174003 | 66 | 121 | 1.7 | 6.1 | 0.00 | 0.00 | 0.00 | 39 | 1015.4 |
| 20260505173214 | 65 | 119 | 1.7 | 6.1 | 0.00 | 0.00 | 0.00 | 39 | 1015.4 |
| 20260505172004 | 66 | 134 | 0.0 | 3.5 | 0.00 | 0.00 | 0.00 | 41 | 1015.4 |
| 20260505171003 | 65 | 137 | 0.9 | 4.3 | 0.00 | 0.00 | 0.00 | 38 | 1015.4 |
| 20260505170214 | 65 | 162 | 0.9 | 5.2 | 0.00 | 0.00 | 0.00 | 38 | 1015.5 |
| 20260505165003 | 65 | 314 | 0.0 | 2.6 | 0.00 | 0.00 | 0.00 | 36 | 1015.4 |
| 20260505164214 | 64 | 348 | 0.0 | 4.3 | 0.00 | 0.00 | 0.00 | 38 | 1015.3 |
| 20260505163003 | 64 | 301 | 0.0 | 0.9 | 0.00 | 0.00 | 0.00 | 36 | 1015.3 |
| 20260505162003 | 63 | 108 | 0.9 | 4.3 | 0.00 | 0.00 | 0.00 | 38 | 1015.3 |
| 20260505161003 | 61 | 114 | 1.7 | 5.2 | 0.00 | 0.00 | 0.00 | 43 | 1015.2 |
| 20260505160213 | 62 | 101 | 1.7 | 3.5 | 0.00 | 0.00 | 0.00 | 43 | 1015.2 |
| 20260505153003 | 60 | 86 | 1.7 | 4.3 | 0.00 | 0.00 | 0.00 | 43 | 1015.3 |
| 20260505152003 | 60 | 88 | 0.9 | 3.5 | 0.00 | 0.00 | 0.00 | 45 | 1015.2 |
| 20260505151003 | 59 | 84 | 0.9 | 4.3 | 0.00 | 0.00 | 0.00 | 43 | 1015.2 |
| 20260505125003 | 54 | 343 | 2.6 | 4.3 | 0.00 | 0.00 | 0.00 | 53 | 1013.8 |
| 20260505124214 | 54 | 344 | 2.6 | 4.3 | 0.00 | 0.00 | 0.00 | 52 | 1013.8 |
| 20260505123003 | 54 | 346 | 3.5 | 5.2 | 0.00 | 0.00 | 0.00 | 52 | 1013.8 |
| 20260505122003 | 54 | 346 | 3.5 | 5.2 | 0.00 | 0.00 | 0.00 | 52 | 1013.7 |
| 20260505121003 | 55 | 343 | 3.5 | 6.1 | 0.00 | 0.00 | 0.00 | 51 | 1013.6 |
| 20260505120004 | 54 | 345 | 3.5 | 6.1 | 0.00 | 0.00 | 0.00 | 52 | 1013.6 |
| 20260505115003 | 54 | 341 | 4.3 | 7.0 | 0.00 | 0.00 | 0.00 | 52 | 1013.4 |
| 20260505114004 | 54 | 341 | 3.5 | 6.1 | 0.00 | 0.00 | 0.00 | 53 | 1013.4 |
| 20260505113003 | 54 | 341 | 2.6 | 5.2 | 0.00 | 0.00 | 0.00 | 54 | 1013.4 |
| 20260505112214 | 54 | 346 | 2.6 | 6.1 | 0.00 | 0.00 | 0.00 | 54 | 1013.5 |
| 20260505111214 | 54 | 344 | 1.7 | 4.3 | 0.00 | 0.00 | 0.00 | 55 | 1013.5 |
| 20260505102003 | 55 | 344 | 3.5 | 5.2 | 0.00 | 0.00 | 0.00 | 51 | 1013.2 |
| 20260505101003 | 54 | 341 | 2.6 | 5.2 | 0.00 | 0.00 | 0.00 | 53 | 1013.1 |
| 20260505100003 | 54 | 347 | 2.6 | 5.2 | 0.00 | 0.00 | 0.00 | 53 | 1013.0 |
| 20260505095003 | 54 | 340 | 2.6 | 4.3 | 0.00 | 0.00 | 0.00 | 51 | 1013.1 |
| 20260505094003 | 55 | 341 | 2.6 | 4.3 | 0.00 | 0.00 | 0.00 | 50 | 1013.0 |
| 20260505093004 | 54 | 344 | 3.5 | 5.2 | 0.00 | 0.00 | 0.00 | 50 | 1013.0 |
| 20260505092213 | 55 | 341 | 3.5 | 6.1 | 0.00 | 0.00 | 0.00 | 50 | 1013.0 |
| 20260505091003 | 55 | 341 | 3.5 | 5.2 | 0.00 | 0.00 | 0.00 | 49 | 1013.0 |
| 20260505090004 | 55 | 342 | 3.5 | 5.2 | 0.00 | 0.00 | 0.00 | 48 | 1013.0 |
| 20260505085003 | 56 | 337 | 2.6 | 5.2 | 0.00 | 0.00 | 0.00 | 47 | 1013.0 |
| 20260505084004 | 56 | 337 | 1.7 | 4.3 | 0.00 | 0.00 | 0.00 | 47 | 1013.0 |
| 20260505083003 | 56 | 339 | 2.6 | 5.2 | 0.00 | 0.00 | 0.00 | 47 | 1013.0 |
| 20260505082003 | 56 | 341 | 3.5 | 5.2 | 0.00 | 0.00 | 0.00 | 47 | 1013.0 |
| 20260505081003 | 57 | 344 | 3.5 | 5.2 | 0.00 | 0.00 | 0.00 | 47 | 1013.0 |
| 20260505080213 | 56 | 341 | 2.6 | 5.2 | 0.00 | 0.00 | 0.00 | 48 | 1013.0 |
| 20260505075003 | 57 | 328 | 0.9 | 4.3 | 0.00 | 0.00 | 0.00 | 46 | 1012.9 |
| 20260505074003 | 58 | 340 | 1.7 | 5.2 | 0.00 | 0.00 | 0.00 | 45 | 1012.9 |
| 20260505073003 | 58 | 333 | 0.9 | 4.3 | 0.00 | 0.00 | 0.00 | 46 | 1012.8 |
| 20260505072003 | 59 | 322 | 0.0 | 3.5 | 0.00 | 0.00 | 0.00 | 45 | 1012.7 |
| 20260505071003 | 60 | 319 | 0.0 | 3.5 | 0.00 | 0.00 | 0.00 | 45 | 1012.6 |
| 20260505070004 | 60 | 317 | 0.9 | 4.3 | 0.00 | 0.00 | 0.00 | 43 | 1012.5 |
| 20260505065003 | 60 | 322 | 0.9 | 3.5 | 0.00 | 0.00 | 0.00 | 43 | 1012.4 |
| 20260505064003 | 60 | 325 | 0.9 | 4.3 | 0.00 | 0.00 | 0.00 | 45 | 1012.5 |
| 20260505063003 | 59 | 325 | 0.9 | 3.5 | 0.00 | 0.00 | 0.00 | 47 | 1012.5 |